Zurück zum Katalog

S80/T

AktivWissenschaftLEO
NORAD 22078·PAYLOAD·🇫🇷 France

Gestartet Aug 10, 1992 von Guiana Space Centre

Loading…

Nächste Überflüge (nächste 24 Stunden)

TLE

AktuellSource: Space-Track

Epoche: Sep 14, 2026, 11:19 UTC

1 22078U 92052C   26257.47191508 -.00000074  00000-0 -50334-4 0  9996
2 22078  66.0833  81.3168 0016717 257.2956 102.6194 12.86854966601726

Verfolge S80/T in Echtzeit mit AllMySat

Download on the App Store